This demonstration page uses our WeatherBlox Daily Observations layout. Learn more.

Left ArrowRight Arrow

Hourly Observations for May 8, 2021

Temp ( °F °C ) Dew Point ( °F °C ) Humidity (%) Winds ( mph kmh ) Pressure ( in mb ) Visibility ( mi km ) Precip ( " mm )
12:54 am 00:54 Cloudy 60 15.6 34 1.1 38 38 ESE 8 13 29.96 1015 10 16.0934 N/A
1:54 am 01:54 Cloudy 60 15.6 36 2.2 41 41 E 6 9 29.94 1014 10 16.0934 N/A
2:54 am 02:54 Cloudy 59 15 37 2.8 44 44 E 7 11 29.91 1013 10 16.0934 N/A
3:34 am 03:34 Cloudy with Nearby Thunderstorms 59 15 39 3.9 48 48 ESE 8 13 29.9 1012 10 16.0934 N/A
3:49 am 03:49 Cloudy 59 15 39 4 48 48 E 13 20 29.89 1012 10 16.0934 N/A
3:54 am 03:54 Cloudy 59 15 40 4.4 49 49 E 10 17 29.89 1012 10 16.0934 N/A
4:54 am 04:54 Cloudy 59 15 36 2.2 42 42 E 13 20 29.87 1012 10 16.0934 N/A
5:54 am 05:54 Cloudy 58 14.4 34 1.1 41 41 E 12 19 29.85 1011 10 16.0934 N/A
6:54 am 06:54 Cloudy 58 14.4 34 1.1 41 41 ESE 14 22 29.84 1010 10 16.0934 N/A
7:54 am 07:54 Mostly Cloudy 57 13.9 34 1.1 42 42 ESE 20 31 29.84 1011 10 16.0934 N/A
8:54 am 08:54 Sunny 60 15.6 38 3.3 44 44 ESE 22 35 29.82 1010 10 16.0934 N/A
9:54 am 09:54 Sunny 62 16.7 42 5.6 48 48 SE 22 35 29.78 1009 10 16.0934 N/A
10:54 am 10:54 Sunny 66 18.9 43 6.1 43 43 ESE 21 33 29.76 1008 10 16.0934 N/A
11:54 am 11:54 Sunny 68 20 45 7.2 44 44 E 17 28 29.74 1007 10 16.0934 N/A
12:54 pm 12:54 Cloudy 68 20 45 7.2 44 44 E 17 28 29.7 1006 10 16.0934 N/A
1:54 pm 13:54 Cloudy 68 20 45 7.2 44 44 ESE 20 31 29.67 1005 10 16.0934 N/A
2:54 pm 14:54 Cloudy 67 19.4 45 7.2 45 45 E 23 37 29.65 1004 10 16.0934 N/A
3:54 pm 15:54 Cloudy 66 18.9 45 7.2 47 47 E 20 31 29.65 1004 10 16.0934 N/A
4:54 pm 16:54 Cloudy 64 17.8 44 6.7 48 48 E 17 28 29.66 1004 10 16.0934 N/A
5:54 pm 17:54 Cloudy 60 15.6 39 3.9 46 46 ENE 22 35 29.69 1005 10 16.0934 N/A
6:54 pm 18:54 Cloudy 57 13.9 37 2.8 47 47 E 17 28 29.68 1005 10 16.0934 N/A
7:44 pm 19:44 Cloudy with Nearby Thunderstorms 55 12.8 36 2.2 49 49 E 23 37 29.7 1006 10 16.0934 0.001 0.001
7:54 pm 19:54 Cloudy with Nearby Thunderstorms 55 12.8 36 2.2 49 49 E 22 35 29.69 1005 10 16.0934 0.001 0.001
8:07 pm 20:07 Windy with Storms Likely 54 12.2 37 2.8 53 53 E 20 31 29.68 1005 10 16.0934 0.001 0.001
8:22 pm 20:22 Cloudy with Nearby Thunderstorms 53 11.7 38 3.3 57 57 E 16 26 29.71 1006 10 16.0934 0.001 0.001
8:54 pm 20:54 Cloudy with Light Rain 50 10 40 4.4 68 68 ENE 17 28 29.7 1006 8 12.87472 0.001 0.001
9:02 pm 21:02 Cloudy with Nearby Thunderstorms 50 10 40 4.4 68 68 ENE 21 33 29.71 1006 10 16.0934 0.01 0.254
9:22 pm 21:22 Cloudy with Light Thunderstorms 49 9.4 40 4.4 71 71 NNE 14 22 29.75 1008 9 14.48406 0.02 0.508
9:34 pm 21:34 Cloudy with Nearby Thunderstorms 47 8.3 40 4.4 77 77 NE 21 33 29.76 1008 7 11.26538 0.04 1.016
9:52 pm 21:52 Cloudy with Light Rain 46 8 39 4 76 76 NE 23 37 29.75 1007 7 11.26538 0.06 1.524
9:54 pm 21:54 Cloudy with Light Rain 47 8.3 40 4.4 77 77 ENE 21 33 29.73 1007 8 12.87472 0.06 1.524
10:38 pm 22:38 Cloudy with Nearby Thunderstorms 46 7.8 41 5 83 83 E 17 28 29.77 1008 9 14.48406 0.001 0.001
10:54 pm 22:54 Cloudy with Nearby Thunderstorms 45 7.2 41 5 86 86 NE 16 26 29.77 1008 6 9.65604 0.03 0.762
11:02 pm 23:02 Cloudy with Rain 45 7.2 41 5 86 86 N 17 28 29.82 1010 7 11.26538 0.01 0.254
11:54 pm 23:54 Cloudy with Rain 45 7.2 41 5 86 86 N 17 28 29.8 1009 7 11.26538 0.1 2.54

Powered by AerisWeather